Location: Unspecified
(49.9820°N, 20.4363°E)
Time: 04:01:52
(UTC+02:00)

Vanguard 3 - Pass Details

Date: 16 May 2026
Orbit: 507 x 3204 km, 33.3° (Epoch: 6 June)

Event Time Altitude Azimuth Distance (km) Brightness Sun altitude
Rises 15:15:11 0° 243° (WSW) 6,821 12.6 45.7°
Reaches altitude 10° 15:19:50 10° 238° (WSW) 5,980 12.6 45.1°
Maximum altitude 15:37:21 44° 175° (S) 3,870 11.3 42.5°
Drops below altitude 10° 15:52:27 10° 111° (ESE) 5,210 11.0 40.3°
Sets 15:56:09 0° 105° (ESE) 5,913 11.2 39.7°
